Regional Weather Roundup
Issued by NWS Green Bay, WI

Home | Current Version | Previous Version | Text Only | Print | Product List | Glossary On
Versions: 1 2 3 4 5 6 7 8 9 10 11 12 13 14 15 16 17 18 19 20 21 22 23 24 25 26 27 28 29 30 31 32 33 34 35 36 37 38 39 40 41 42 43 44 45 46 47 48 49 50
000
ASUS43 KGRB 242111
RWRGRB

NORTH-CENTRAL AND NORTHEAST WISCONSIN REGIONAL WEATHER ROUNDUP
NATIONAL WEATHER SERVICE GREEN BAY WI
400 PM CDT SUN SEP 24 2017

WIZ005-009-010>012-018-019-242200-
NORTH CENTRAL WISCONSIN

CITY           SKY/WX    TMP DP  RH WIND       PRES   REMARKS
IRONWOOD       SUNNY     87  58  37 S12       29.93F
MANITOWISH WTR NOT AVBL
ARBOR VITAE    SUNNY     85  61  44 S14G20    29.98F
EAGLE RIVER    SUNNY     84  55  36 S8        29.99F
LAND O LAKES   MOSUNNY   84  57  39 SW9       30.01S
RHINELANDER    MOSUNNY   86  61  42 S9G17     30.00F
PHILLIPS       MOSUNNY   85  60  43 S10G22    29.96F
ANTIGO         SUNNY     84  61  45 S13G22    30.02S
TOMAHAWK       MOSUNNY   85  58  40 S3        29.99F
MERRILL        SUNNY     87  61  41 S12G17    29.99F
$$

WIZ013-073-242200-
NORTHEAST WISCONSIN

CITY           SKY/WX    TMP DP  RH WIND       PRES   REMARKS
IRON MOUNTAIN  MOSUNNY   85  63  47 S10       29.99F
MARINETTE      SUNNY     86  68  54 S12       29.99
OCONTO         SUNNY     89  65  44 SW9       29.99S HX  90
$$

WIZ017-030-035>037-045-242200-
CENTRAL WISCONSIN

CITY           SKY/WX    TMP DP  RH WIND       PRES   REMARKS
MEDFORD        SUNNY     85  59  41 S14G22    29.98F
WAUSAU         MOSUNNY   87  61  41 S13       29.97F
MOSINEE        MOSUNNY   86  63  45 S9G17     30.00F
MARSHFIELD     SUNNY     86  55  34 S17G23    29.98F
WISC RAPIDS    SUNNY     89  61  38 SW12      29.99F
STEVENS POINT  MOSUNNY   85  59  42 S14       30.00S
WAUPACA        SUNNY     90  60  37 SE10G16   29.99F
SHAWANO        SUNNY     90  61  37 SW5       29.99S HX  90
CLINTONVILLE   SUNNY     90  57  33 SW12      29.99F
WAUTOMA        SUNNY     89  61  38 S12G17    29.98F
$$

WIZ038-039-048-051-242200-
FOX VALLEY

CITY           SKY/WX    TMP DP  RH WIND       PRES   REMARKS
NWS GREEN BAY  SUNNY     89  66  46 SW8       29.99F HX  91
APPLETON       NOT AVBL
OSHKOSH        MOSUNNY   87  64  46 S13       29.99F
FOND DU LAC    SUNNY     88  60  38 S10       30.00F
$$

WIZ022-050-052-242200-
EAST CENTRAL WISCONSIN

CITY           SKY/WX    TMP DP  RH WIND       PRES   REMARKS
EPHRAIM        FAIR      79  66  64 S8        30.01S
WASHINGTON ISL FAIR      74  67  78 S12G17    30.01F
STURGEON BAY   SUNNY     83  65  54 S16       30.01F
MANITOWOC      SUNNY     79  67  66 SE10      30.02F
SHEBOYGAN      SUNNY     85  67  54 S9        30.02F
$$

LMZ563-521-522-541>543-242200-
LAKESHORE

STATION/POSITION TIME  TEMP    WIND        PRES    VSBY  WAVE
                       AIR SEA DIR/SP/G                  HT/PER
                 (UTC) (F)     (DEG/KT/KT) (MB)    (MI)  (FT/S)
SHEBOYGAN LKSHOR 2100   71     190/  7/  7 1016.1F
KEWAUNEE LKSHORE 2042   67     180/  8/  9 1016.0F
NORTHPORT PIER   2040   74     150/  7/ 13 1015.9F
N MID LAKE BUOY  2050   70 67  180/  8/ 10 1017.1F         1/ 3
S GREEN BAY BUOY 2100   81 71  220/  6/  6 1015.5
MENOMINEE LKSHOR 2042   76     140/  9/ 10 1015.3F
$$




USA.gov is the U.S. government's official web portal to all federal, state and local government web resources and services.